Tracking 19149 objects as of 20-Apr-2018
HD Live streaming from Space Station
objects crossing your sky now

CZ-2C DEB

Track CZ-2C DEB now!
10-day predictions


NORAD ID: 40265
Int'l Code: 2014-059E
Perigee: 693.2 km
Apogee: 973.7 km
Inclination: 97.9 °
Period: 101.4 minutes
Semi major axis: 7204 km
RCS: Unknown
Launch date: September 28, 2014
Source: People's Republic of China (PRC)
Launch site: Jiuquan Satellite Launch Center, China (JSC)

Note: This is SATELLITE DEBRIS
aabbcc
Your satellite tracking list
Your tracking list is empty




NASA's NSSDC Master Catalog

Two Line Element Set (TLE):
1 40265U 14059E   18109.47365270 +.00000170 +00000-0 +82609-4 0  9996
2 40265 097.9000 078.6381 0194726 305.1543 053.1527 14.19717269184213
Source of the keplerian elements: AFSPC